Weather History for Mammoth, CA

Change the Weather History Date:

Wednesday, December 11, 2013

  Actual Average Record
Temperature  
Mean Temperature 24 °F -  
Max Temperature 42 °F 40 °F 60 °F (2008)
Min Temperature 6 °F 24 °F 6 °F (2011)
Degree Days  
Heating Degree Days 41    
Moisture  
Dew Point 9 °F    
Average Humidity 60    
Maximum Humidity 85    
Minimum Humidity 23    
Precipitation  
Precipitation 0.00 in - - ()
Sea Level Pressure  
Sea Level Pressure 30.29 in    
Wind  
Wind Speed 2 mph (NNW)    
Max Wind Speed 8 mph    
Max Gust Speed -    
Visibility 10 miles    
Events      
Averages and records for this station are not official NWS values.
T = Trace of Precipitation, MM = Missing Value Source: NWS Daily Summary

Daily Weather History Graph

Daily Weather History Graph

Search for Another Location

Airport:

Trip Planner

Search our weather history database for the weather conditions in past years. The results will help you decide how hot, cold, wet, or windy it might be!

Date:

Astronomy

Dec. 11, 2013 Rise Set
Actual Time 7:00 AM PST 4:37 PM PST
Civil Twilight 6:31 AM PST 5:06 PM PST
Nautical Twilight 5:58 AM PST 5:39 PM PST
Astronomical Twilight 5:26 AM PST 6:10 PM PST
Moon 1:08 PM PST (12/11) 1:31 AM PST (12/11)
Length of Visible Light 10h 35m
Length of Day
9h 36m
Waxing Gibbous, 72% of the Moon is Illuminated
Dec 11
Waxing Gibbous
Dec 17
Full
Dec 25
Last Quarter
Jan 1
New
Jan 7
First Quarter

Hourly Weather History & Observations

Time (PST) Temp. Windchill Dew Point Humidity Pressure Visibility Wind Dir Wind Speed Gust Speed Precip Events Conditions
12:15 AM 23.0 °F - 10.4 °F 59% 30.24 in 10.0 mi North - - N/A   Scattered Clouds
12:35 AM 21.2 °F - 10.4 °F 63% 30.23 in 10.0 mi Calm Calm - N/A   Mostly Cloudy
12:55 AM 21.2 °F 13.6 °F 10.4 °F 63% 30.24 in 10.0 mi NNW 5.8 mph - N/A   Overcast
1:15 AM 19.4 °F - 10.4 °F 68% 30.25 in 10.0 mi Calm Calm - N/A   Mostly Cloudy
1:35 AM 17.6 °F - 8.6 °F 68% 30.25 in 10.0 mi Calm Calm - N/A   Scattered Clouds
1:55 AM 12.2 °F - 6.8 °F 79% 30.25 in 10.0 mi Calm Calm - N/A   Clear
2:15 AM 14.0 °F - 8.6 °F 79% 30.25 in 10.0 mi Calm Calm - N/A   Clear
2:35 AM 12.2 °F 6.1 °F 6.8 °F 79% 30.25 in 10.0 mi WNW 3.5 mph - N/A   Clear
2:55 AM 10.4 °F 4.0 °F 5.0 °F 79% 30.25 in 10.0 mi North 3.5 mph - N/A   Clear
3:15 AM 12.2 °F 4.3 °F 6.8 °F 79% 30.25 in 10.0 mi North 4.6 mph - N/A   Clear
3:35 AM 14.0 °F - 8.6 °F 79% 30.25 in 10.0 mi Calm Calm - N/A   Clear
3:55 AM 14.0 °F - 6.8 °F 73% 30.25 in 10.0 mi Calm Calm - N/A   Clear
4:15 AM 15.8 °F 8.6 °F 6.8 °F 68% 30.25 in 10.0 mi NW 4.6 mph - N/A   Clear
4:35 AM 8.6 °F - 5.0 °F 85% 30.25 in 10.0 mi Calm Calm - N/A   Clear
4:55 AM 8.6 °F - 5.0 °F 85% 30.26 in 10.0 mi Calm Calm - N/A   Clear
5:15 AM 12.2 °F - 6.8 °F 79% 30.26 in 10.0 mi Calm Calm - N/A   Clear
5:35 AM 12.2 °F 6.1 °F 6.8 °F 79% 30.26 in 10.0 mi NNW 3.5 mph - N/A   Clear
5:55 AM 8.6 °F - 3.2 °F 79% 30.26 in 10.0 mi Calm Calm - N/A   Clear
6:15 AM 6.8 °F -0.1 °F 3.2 °F 85% 30.28 in 10.0 mi North 3.5 mph - N/A   Clear
6:35 AM 8.6 °F 2.0 °F 5.0 °F 85% 30.28 in 10.0 mi NNW 3.5 mph - N/A   Clear
6:55 AM 10.4 °F - 5.0 °F 79% 30.28 in 10.0 mi Calm Calm - N/A   Clear
7:15 AM 6.8 °F - 1.4 °F 79% 30.29 in 10.0 mi Calm Calm - N/A   Clear
7:35 AM 8.6 °F - 3.2 °F 79% 30.30 in 10.0 mi Calm Calm - N/A   Clear
7:55 AM 14.0 °F 8.2 °F 6.8 °F 73% 30.31 in 10.0 mi NW 3.5 mph - N/A   Clear
8:15 AM 17.6 °F - 8.6 °F 68% 30.31 in 10.0 mi Calm Calm - N/A   Clear
8:35 AM 19.4 °F - 10.4 °F 68% 30.31 in 10.0 mi North - - N/A   Clear
8:55 AM 23.0 °F - 10.4 °F 59% 30.31 in 10.0 mi Calm Calm - N/A   Clear
9:15 AM 23.0 °F 13.9 °F 12.2 °F 63% 30.31 in 10.0 mi SE 8.1 mph - N/A   Clear
9:35 AM 26.6 °F 22.6 °F 10.4 °F 51% 30.31 in 10.0 mi SSE 3.5 mph - N/A   Clear
9:55 AM 30.2 °F 24.3 °F 12.2 °F 47% 30.32 in 10.0 mi SSE 5.8 mph - N/A   Clear
10:15 AM 30.2 °F - 10.4 °F 44% 30.32 in 10.0 mi Calm Calm - N/A   Clear
10:35 AM 33.8 °F - 12.2 °F 41% 30.31 in 10.0 mi Calm Calm - N/A   Clear
10:55 AM 35.6 °F - 8.6 °F 33% 30.31 in 10.0 mi Calm Calm - N/A   Clear
11:15 AM 37.4 °F - 10.4 °F 33% 30.31 in 10.0 mi Calm Calm - N/A   Clear
11:35 AM 39.2 °F 35.9 °F 12.2 °F 33% 30.30 in 10.0 mi SE 4.6 mph - N/A   Clear
11:55 AM 41.0 °F 38.0 °F 12.2 °F 31% 30.30 in 10.0 mi SE 4.6 mph - N/A   Clear
12:15 PM 41.0 °F 39.0 °F 10.4 °F 29% 30.29 in 10.0 mi SSE 3.5 mph - N/A   Clear
12:35 PM 41.0 °F 38.0 °F 12.2 °F 31% 30.29 in 10.0 mi SE 4.6 mph - N/A   Clear
12:55 PM 42.8 °F 40.1 °F 10.4 °F 27% 30.28 in 10.0 mi SE 4.6 mph - N/A   Clear
1:15 PM 42.8 °F - 10.4 °F 27% 30.28 in 10.0 mi Calm Calm - N/A   Clear
1:35 PM 42.8 °F 40.1 °F 10.4 °F 27% 30.27 in 10.0 mi SE 4.6 mph - N/A   Clear
1:55 PM 42.8 °F - 8.6 °F 25% 30.27 in 10.0 mi Calm Calm - N/A   Clear
2:15 PM 42.8 °F 41.1 °F 8.6 °F 25% 30.27 in 10.0 mi SE 3.5 mph - N/A   Clear
2:35 PM 42.8 °F 41.1 °F 8.6 °F 25% 30.27 in 10.0 mi SE 3.5 mph - N/A   Clear
2:55 PM 42.8 °F 39.3 °F 8.6 °F 25% 30.27 in 10.0 mi ESE 5.8 mph - N/A   Clear
3:15 PM 42.8 °F - 6.8 °F 23% 30.27 in 10.0 mi Calm Calm - N/A   Clear
3:35 PM 41.0 °F 39.0 °F 8.6 °F 26% 30.27 in 10.0 mi SSE 3.5 mph - N/A   Clear
3:55 PM 33.8 °F 28.6 °F 12.2 °F 41% 30.28 in 10.0 mi SW 5.8 mph - N/A   Clear
4:15 PM 33.8 °F 28.6 °F 14.0 °F 44% 30.28 in 10.0 mi SW 5.8 mph - N/A   Clear
4:35 PM 32.0 °F - 12.2 °F 44% 30.28 in 10.0 mi Calm Calm - N/A   Clear
4:55 PM 28.4 °F - 12.2 °F 51% 30.29 in 10.0 mi Calm Calm - N/A   Clear
5:15 PM 26.6 °F - 12.2 °F 55% 30.30 in 10.0 mi Calm Calm - N/A   Clear
5:35 PM 26.6 °F 21.2 °F 12.2 °F 55% 30.30 in 10.0 mi NNW 4.6 mph - N/A   Clear
5:55 PM 26.6 °F - 14.0 °F 59% 30.30 in 10.0 mi North - - N/A   Clear
6:15 PM 24.8 °F 20.5 °F 14.0 °F 64% 30.31 in 10.0 mi NNW 3.5 mph - N/A   Clear
6:35 PM 23.0 °F 18.4 °F 14.0 °F 68% 30.31 in 10.0 mi North 3.5 mph - N/A   Clear
6:55 PM 23.0 °F - 14.0 °F 68% 30.32 in 10.0 mi Calm Calm - N/A   Clear
7:15 PM 21.2 °F - 12.2 °F 68% 30.33 in 10.0 mi Calm Calm - N/A   Clear
7:35 PM 19.4 °F 14.3 °F 12.2 °F 74% 30.33 in 10.0 mi NW 3.5 mph - N/A   Clear
7:55 PM 19.4 °F 14.3 °F 12.2 °F 74% 30.34 in 10.0 mi NW 3.5 mph - N/A   Clear
8:15 PM 19.4 °F 14.3 °F 12.2 °F 74% 30.34 in 10.0 mi North 3.5 mph - N/A   Clear
8:35 PM 19.4 °F - 10.4 °F 68% 30.34 in 10.0 mi Calm Calm - N/A   Clear
8:55 PM 19.4 °F - 10.4 °F 68% 30.35 in 10.0 mi Calm Calm - N/A   Clear
9:15 PM 15.8 °F 10.2 °F 8.6 °F 73% 30.35 in 10.0 mi North 3.5 mph - N/A   Clear
9:35 PM 17.6 °F 12.3 °F 10.4 °F 73% 30.35 in 10.0 mi NNW 3.5 mph - N/A   Clear
9:55 PM 15.8 °F 10.2 °F 8.6 °F 73% 30.35 in 10.0 mi NNW 3.5 mph - N/A   Clear
10:15 PM 15.8 °F 10.2 °F 8.6 °F 73% 30.35 in 10.0 mi NNW 3.5 mph - N/A   Clear
10:35 PM 15.8 °F 10.2 °F 8.6 °F 73% 30.35 in 10.0 mi NW 3.5 mph - N/A   Clear
10:55 PM 15.8 °F - 8.6 °F 73% 30.34 in 10.0 mi Calm Calm - N/A   Clear
11:15 PM 15.8 °F - 8.6 °F 73% 30.34 in 10.0 mi Calm Calm - N/A   Clear
11:35 PM 15.8 °F - 8.6 °F 73% 30.34 in 10.0 mi Calm Calm - N/A   Clear
11:55 PM 15.8 °F 10.2 °F 8.6 °F 73% 30.33 in 10.0 mi North 3.5 mph - N/A   Clear